Location: Amsterdam
(30.7274°N, 84.4357°W)
Time: 21:09:35
(UTC+00:00)

Injun/Solrad 3 - Pass Details

Date: 20 February 2026
Orbit: 872 x 984 km, 66.8° (Epoch: 6 March)

Event Time Altitude Azimuth Distance (km) Brightness Sun altitude
Rises 14:43:19 0° 173° (S) 3,445 11.4 28.7°
Reaches altitude 10° 14:46:11 10° 160° (SSE) 2,508 11.1 29.2°
Maximum altitude 14:50:50 26° 106° (ESE) 1,668 11.0 30.0°
Drops below altitude 10° 14:55:31 10° 53° (NE) 2,535 10.5 30.8°
Sets 14:58:25 0° 40° (NE) 3,489 10.9 31.3°
